Regional Weather Roundup
Issued by NWS Charleston, SC

Current Version | Previous Version | Text Only | Print | Product List | Glossary Off
Versions: 1 2 3 4 5 6 7 8 9 10 11 12 13 14 15 16 17 18 19 20 21 22 23 24 25 26 27 28 29 30 31 32 33 34 35 36 37 38 39 40 41 42 43 44 45 46 47 48 49 50

000
ASUS42 KCHS 210112
RWRCHS

REGIONAL WEATHER ROUNDUP
NATIONAL WEATHER SERVICE CHARLESTON SC
900 PM EDT FRI OCT 20 2017

NOTE: "FAIR" INDICATES FEW OR NO CLOUDS BELOW 12,000 FEET WITH NO
SIGNIFICANT WEATHER AND/OR OBSTRUCTIONS TO VISIBILITY.

NOT ALL STATIONS ARE QUALITY CONTROLLED. USE DATA WITH CAUTION...
ESPECIALLY DEWPOINT OBSERVATIONS.

SCZ027-030-031-034>040-042>050-210200-
...SOUTHEAST SOUTH CAROLINA...

CITY           SKY/WX    TMP DP  RH WIND       PRES   REMARKS
N CHARLESTON   CLEAR     63  59  87 CALM      30.21S
WATERFRONT PRK   N/A     71  64  78 E5        30.06
JOHNS ISLAND   FAIR      63  61  94 CALM      30.21S
PINOPOLIS        N/A     66  63  88 S5        30.13R
MONCKS CORNER  FAIR      59  59 100 CALM      30.21S
SUMMERVILLE    FAIR      57  55  94 CALM      30.22R
BEAUFORT MCAS  CLEAR     68  65  90 MISG      30.20S
BEAUFORT ARPT  FAIR      64  63  94 E3        30.20R
HILTON HEAD IS CLEAR     66  63  88 CALM      30.21R
WALTERBORO     CLEAR     57  54  88 CALM      30.22R
ALLENDALE        N/A     59  52  77 CALM        N/A

...SOUTHERN MIDLANDS AND PEE DEE...

CITY           SKY/WX    TMP DP  RH WIND       PRES   REMARKS
GEORGETOWN     FAIR      57  55  94 CALM      30.22S
KINGSTREE      FAIR      57  55  94 CALM      30.21S
ORANGEBURG     CLEAR     59  51  75 CALM      30.21R
BARNWELL         N/A     61  52  72 CALM      30.20S
AIKEN          FAIR      55  46  71 CALM      30.25R
MANNING        FOG       57  55  94 MISG      30.21S VSB<1/4
COLUMBIA       CLEAR     59  55  87 CALM      30.20R
SUMTER         CLEAR     61  50  66 CALM      30.19R
FLORENCE       CLEAR     58  54  86 CALM      30.21R
MYRTLE BEACH   CLEAR     63  58  83 CALM      30.22S
N MYRTLE BEACH CLEAR     61  59  93 CALM      30.20S

$$

GAZ063-065-086>088-099>101-113>116-118-119-134>141-150-210200-
...SOUTHEAST GEORGIA...

CITY           SKY/WX    TMP DP  RH WIND       PRES   REMARKS
SAVANNAH ARPT  CLEAR     68  63  84 CALM      30.20R
HUNTER AAF     CLEAR     66  62  89 CALM      30.17S
FORT STEWART   CLEAR     64  61  90 CALM      30.17S
STATESBORO     CLEAR     60  54  79 CALM      30.20S
SYLVANIA       CLEAR     60  55  82 CALM      30.21R
CLAXTON        FAIR      63  60  92 CALM      30.20R

...CSRA...CENTRAL AND FAR SOUTHEAST GEORGIA...

CITY           SKY/WX    TMP DP  RH WIND       PRES   REMARKS
THOMSON        CLEAR     55  50  81 CALM      30.26R
AUGUSTA-BUSH   CLEAR     56  51  84 CALM      30.20R
AUGUSTA-DANIEL CLEAR     70  46  42 CALM      30.21R
SWAINSBORO     FAIR      59  54  82 MISG      30.20S
VIDALIA        CLEAR     66  54  63 CALM      30.19S
EASTMAN        FAIR      60  46  60 CALM      30.21R
HAZLEHURST     FAIR      72  52  49 SE3       30.17S
ALMA           CLEAR     70  63  78 E3        30.17S
WAYCROSS       CLEAR     70  65  83 E7        30.17F
JESUP          NOT AVBL
BAXLEY         FAIR      68  63  83 E3        30.18S
BRUNSWICK      CLEAR     66  63  88 CALM      30.19S
SAINT SIMONS   CLEAR     74  66  76 NE7       30.17S

$$

SCZ027-028-034-036>038-045-046-048>050-GAZ119-141-210200-
...LAKE AND SUPPLEMENTAL COASTAL OBSERVATIONS...

STATION/POSITION TIME  TEMP    WIND        PRES    WAVE   SWELL
                       AIR SEA DIR/SP/G            HT/PER HT/PER/DIR
                 (UTC) (F)     (DEG/KT/KT) (MB)    (FT/S) (FT/S/D)
WINYAH BAY       2345   64     310/  2     1023.0
LAKE MURRAY      0020   67        CALM     1022.0
ACE BASIN NERRS  2345   66        CALM     1023.0
FORT PULASKI     0048   71 73  130/  3/  3 1022.8R
SAPELO ISLAND    NOT AVBL

$$

ANZ835-935-AMZ111-154-330-350-352-354-370-450-454-472-210200-
...C-MAN AND BUOY OBSERVATIONS...

STATION/POSITION TIME  TEMP    WIND        PRES    WAVE   SWELL
                       AIR SEA DIR/SP/G            HT/PER HT/PER/DIR
                 (UTC) (F)     (DEG/KT/KT) (MB)    (FT/S) (FT/S/D)
BUOY 41004       0050   74      60/  6/ 10 1022.2S   3/ 8   3/ 90/ 8
BUOY 41008       0050   76 77   70/ 12/ 14 1021.6R   4/ 9   3/110/ 9
FOLLY BEACH CMAN 0000   72     100/  7/  8 1023.4R
CAPERS NEARSHORE 0008   70 73  130/  8/ 14 1022.5R
FRIPP NEARSHORE  0008   74     100/  6/ 10   N/A


STATION/POSITION TIME  TEMP    WIND        PRES    WAVE   SWELL
                       AIR SEA DIR/SP/G            HT/PER HT/PER/DIR
                 (UTC) (F)     (DEG/KT/KT) (MB)    (FT/S) (FT/S/D)
5E ST. MARYS GA  0030      77                N/A     5/ 5
FRYING PAN BUOY  0050   73 76  120/  2/  4 1022.6R
BUOY 41025       0050   73 81  360/  6/  8 1022.8R   3/ 8   3/100/ 8
CAPE LOOKOUT NC  0000   71     130/  2/  3 1022.6R
BUOY 41002       0050   76 80   50/ 12/ 14 1021.5R   4/ 8   3/ 90/ 8
BUOY 41010       NOT AVBL
ST AUGUSTINE FL  0100   79 78   80/ 14/ 16 1020.8S


$$




USA.gov is the U.S. government's official web portal to all federal, state and local government web resources and services.